TimeEDT,TemperatureF,Dew PointF,Humidity,Sea Level PressureIn,VisibilityMPH,Wind Direction,Wind SpeedMPH,Gust SpeedMPH,PrecipitationIn,Events,Conditions,WindDirDegrees,DateUTC
12:53 AM,45.0,35.1,68,30.06,10.0,Calm,Calm,-,N/A,,Partly Cloudy,0,2013-03-23 04:53:00
1:53 AM,41.0,36.0,82,30.06,10.0,Calm,Calm,-,N/A,,Scattered Clouds,0,2013-03-23 05:53:00
2:53 AM,39.0,36.0,89,30.05,10.0,Calm,Calm,-,N/A,,Clear,0,2013-03-23 06:53:00
3:53 AM,39.9,37.0,89,30.03,10.0,Calm,Calm,-,N/A,,Clear,0,2013-03-23 07:53:00
4:53 AM,37.9,35.1,89,30.02,10.0,Calm,Calm,-,N/A,,Partly Cloudy,0,2013-03-23 08:53:00
5:53 AM,41.0,37.9,89,30.03,10.0,Calm,Calm,-,N/A,,Mostly Cloudy,0,2013-03-23 09:53:00
6:53 AM,37.9,36.0,93,30.03,10.0,Calm,Calm,-,N/A,,Scattered Clouds,0,2013-03-23 10:53:00
7:53 AM,41.0,39.0,93,30.04,10.0,Calm,Calm,-,N/A,,Mostly Cloudy,0,2013-03-23 11:53:00
8:53 AM,46.9,37.9,71,30.02,10.0,NE,3.5,-,N/A,,Overcast,50,2013-03-23 12:53:00
9:53 AM,50.0,30.0,46,30.06,10.0,Calm,Calm,-,N/A,,Overcast,0,2013-03-23 13:53:00
10:53 AM,45.0,39.0,80,30.08,3.0,Calm,Calm,-,0.04,Rain,Light Rain,0,2013-03-23 14:53:00
11:25 AM,44.6,39.2,81,30.07,2.5,Calm,Calm,-,0.07,Rain,Rain,0,2013-03-23 15:25:00
11:33 AM,44.6,39.2,81,30.07,3.0,Calm,Calm,-,0.09,Rain,Light Rain,0,2013-03-23 15:33:00
11:53 AM,44.1,39.9,85,30.07,3.0,Calm,Calm,-,0.13,Rain,Rain,0,2013-03-23 15:53:00
12:30 PM,44.6,39.2,81,30.05,2.0,Calm,Calm,-,0.08,Rain,Rain,0,2013-03-23 16:30:00
12:44 PM,44.6,39.2,81,30.04,3.0,Calm,Calm,-,0.11,Rain,Light Rain,0,2013-03-23 16:44:00
12:53 PM,45.0,39.9,82,30.03,4.0,East,3.5,-,0.12,Rain,Light Rain,90,2013-03-23 16:53:00
1:53 PM,45.0,42.1,90,30.06,3.0,North,4.6,-,0.05,Rain,Light Rain,350,2013-03-23 17:53:00
2:29 PM,46.4,42.8,87,30.01,5.0,ESE,4.6,-,0.03,Rain,Light Rain,110,2013-03-23 18:29:00
2:53 PM,46.0,42.1,86,30.00,7.0,East,4.6,-,0.03,Rain,Light Rain,90,2013-03-23 18:53:00
3:53 PM,48.0,42.1,80,29.97,3.0,NE,10.4,-,0.00,,Overcast,40,2013-03-23 19:53:00
4:53 PM,48.9,44.1,83,29.94,8.0,NE,3.5,-,N/A,,Overcast,50,2013-03-23 20:53:00
5:42 PM,50.0,44.6,82,29.92,5.0,East,3.5,-,N/A,,Overcast,90,2013-03-23 21:42:00
5:53 PM,51.1,44.1,77,29.92,5.0,East,4.6,-,N/A,,Scattered Clouds,80,2013-03-23 21:53:00
6:53 PM,51.1,44.1,77,29.93,10.0,Calm,Calm,-,N/A,,Clear,0,2013-03-23 22:53:00
7:53 PM,46.9,43.0,86,29.98,10.0,South,3.5,-,N/A,,Mostly Cloudy,190,2013-03-23 23:53:00
8:53 PM,46.9,44.1,90,29.98,6.0,Calm,Calm,-,N/A,,Clear,0,2013-03-24 00:53:00
9:53 PM,45.0,43.0,93,29.98,4.0,Calm,Calm,-,N/A,,Clear,0,2013-03-24 01:53:00
10:03 PM,44.6,42.8,93,29.97,1.8,Calm,Calm,-,N/A,,Clear,0,2013-03-24 02:03:00
10:22 PM,44.6,42.8,93,29.96,2.5,Calm,Calm,-,N/A,,Mostly Cloudy,0,2013-03-24 02:22:00
10:37 PM,44.6,42.8,93,29.95,3.0,NE,3.5,-,N/A,,Mostly Cloudy,50,2013-03-24 02:37:00
10:53 PM,44.1,43.0,96,29.93,3.0,NE,4.6,-,N/A,,Partly Cloudy,40,2013-03-24 02:53:00
11:53 PM,46.0,44.1,93,29.93,5.0,Calm,Calm,-,N/A,,Overcast,0,2013-03-24 03:53:00